Location: Six Mile Lake
(44.9000°N, 79.7170°W)
Time: 08:28:03
(UTC-04:00)

AO-109 - Pass Details

Date: 02 July 2022
Orbit: 469 x 506 km, 60.7° (Epoch: 14 August)

Event Time Altitude Azimuth Distance (km) Brightness Sun altitude
Exits shadow 04:28:58 - 188° (S) 1,679 ? -9.9°
Reaches altitude 10° 04:29:05 10° 187° (S) 1,638 ? -9.9°
Maximum altitude 04:32:22 31° 123° (ESE) 853 ? -9.5°
Drops below altitude 10° 04:35:43 10° 60° (ENE) 1,669 ? -9.1°
Sets 04:38:02 0° 50° (NE) 2,562 ? -8.8°
